CDT,Max TemperatureF,Mean TemperatureF,Min TemperatureF,Max Dew PointF,MeanDew PointF,Min DewpointF,Max Humidity, Mean Humidity, Min Humidity, Max Sea Level PressureIn, Mean Sea Level PressureIn, Min Sea Level PressureIn, Max VisibilityMiles, Mean VisibilityMiles, Min VisibilityMiles, Max Wind SpeedMPH, Mean Wind SpeedMPH, Max Gust SpeedMPH,PrecipitationIn, CloudCover, Events, WindDirDegrees
2013-3-1,30,23,15,22,19,13,88,76,63,30.42,30.36,30.24,10,10,10,20,10,23,0.00,5,,358
2013-3-2,37,24,10,29,22,8,92,81,70,30.41,30.26,30.06,10,10,8,17,8,23,0.00,2,,195
2013-3-3,42,33,24,36,31,23,100,88,76,30.03,29.81,29.65,10,9,5,17,9,23,0.00,0,,149
2013-3-4,47,37,27,34,28,12,92,70,47,30.15,29.84,29.63,10,10,6,28,17,44,T,6,,340
2013-3-5,37,29,21,18,14,12,84,62,40,30.47,30.33,30.17,10,10,10,35,20,43,0.00,0,,329
2013-3-6,40,28,16,23,19,12,92,70,48,30.46,30.34,30.18,10,10,10,20,9,24,0.00,1,,126
2013-3-7,53,39,24,31,26,21,88,65,41,30.19,30.12,30.05,10,10,6,22,12,28,0.00,0,,137
2013-3-8,57,42,26,47,36,25,92,74,55,30.13,29.97,29.81,10,9,5,23,12,26,0.01,4,,124
2013-3-9,66,49,31,54,42,28,100,80,60,29.81,29.65,29.50,10,5,0,35,20,41,0.36,8,Fog-Rain-Snow-Thunderstorm,102
2013-3-10,32,25,17,29,19,13,92,80,68,30.09,29.99,29.79,10,4,0,40,28,47,0.32,7,Fog-Rain-Snow,341
2013-3-11,53,34,14,31,19,10,88,64,39,30.11,30.00,29.88,10,10,10,23,10,29,0.00,0,,314
2013-3-12,43,33,23,27,19,9,78,53,27,30.39,30.25,30.08,10,10,10,36,16,46,0.00,1,,319
2013-3-13,49,35,20,29,22,16,88,65,42,30.44,30.34,30.18,10,10,10,20,9,24,0.00,2,,175
2013-3-14,73,52,31,44,34,29,96,59,22,30.16,30.11,30.04,10,10,10,17,8,21,0.00,0,,278
2013-3-15,74,57,40,45,38,35,83,55,27,30.02,29.82,29.69,10,10,10,18,10,24,0.00,0,,281
2013-3-16,40,34,27,33,24,19,85,69,52,30.18,30.08,29.90,10,10,10,30,14,36,0.00,6,,26
2013-3-17,49,38,26,34,27,21,100,75,49,30.14,29.91,29.68,10,9,1,23,13,28,0.16,7,Rain-Snow,139
2013-3-18,43,36,28,34,22,10,100,64,28,30.10,29.94,29.78,10,9,5,31,14,41,T,3,Rain,304
2013-3-19,51,38,25,30,21,15,82,56,29,30.39,30.19,30.08,10,10,10,25,12,31,0.00,5,,310
2013-3-20,43,29,15,19,14,10,84,56,27,30.46,30.32,30.09,10,10,10,14,6,18,0.00,1,,22
2013-3-21,38,32,25,26,20,14,75,64,53,30.07,29.95,29.83,10,9,3,23,14,28,0.02,6,Snow,111
2013-3-22,34,30,25,30,25,19,100,91,82,30.05,29.97,29.91,10,5,1,15,8,18,0.10,8,Snow,118
2013-3-23,32,28,24,29,27,21,92,85,78,30.19,30.08,30.00,10,4,0,26,15,33,0.10,8,Fog-Rain-Snow,27
2013-3-24,32,25,18,21,17,13,84,71,58,30.24,30.18,30.10,10,9,2,31,20,37,T,4,Rain-Snow,341
2013-3-25,29,23,17,18,15,12,84,69,53,30.43,30.33,30.20,10,10,10,29,16,36,T,6,,331
2013-3-26,46,30,13,23,16,10,92,63,33,30.43,30.33,30.22,10,10,10,16,9,24,0.00,0,,199
2013-3-27,54,42,29,30,26,23,82,59,35,30.24,30.19,30.15,10,10,10,13,7,16,0.00,2,,122
2013-3-28,63,46,28,33,29,24,85,55,25,30.24,30.19,30.13,10,10,7,16,8,21,0.00,1,,145
2013-3-29,72,52,32,50,36,28,85,57,28,30.20,30.12,30.01,10,10,7,32,10,38,0.56,2,Rain,164
2013-3-30,66,57,47,54,48,37,100,69,37,30.04,29.97,29.92,10,6,0,24,10,29,0.02,6,Fog-Rain-Thunderstorm,326
2013-3-31,63,47,31,44,34,27,92,60,27,30.17,30.04,29.91,10,10,10,33,13,39,T,4,Rain,343